Weather History for Mumbai, India

Change the Weather History Date:

Monday, September 23, 2013

  Actual Average Record
Temperature  
Mean Temperature 84 °F -  
Max Temperature 88 °F 88 °F 93 °F (2000)
Min Temperature 80 °F 76 °F 75 °F (2014)
Cooling Degree Days 19    
Growing Degree Days 34 (Base 50)    
Moisture  
Dew Point 75 °F    
Average Humidity 77    
Maximum Humidity 84    
Minimum Humidity 58    
Precipitation  
Precipitation 0.02 in - - ()
Sea Level Pressure  
Sea Level Pressure 29.64 in    
Wind  
Wind Speed 11 mph ()    
Max Wind Speed 18 mph    
Max Gust Speed 26 mph    
Visibility 2.0 miles    
Events      
Averages and records for this station are not official NWS values.
T = Trace of Precipitation, MM = Missing Value Source: Averaged Metar Reports

Daily Weather History Graph

Daily Weather History Graph

Search for Another Location

Airport:

Trip Planner

Search our weather history database for the weather conditions in past years. The results will help you decide how hot, cold, wet, or windy it might be!

Date:

Astronomy

Sep. 23, 2013 Rise Set
Actual Time 6:27 AM IST 6:34 PM IST
Civil Twilight 6:05 AM IST 6:55 PM IST
Nautical Twilight 5:40 AM IST 7:21 PM IST
Astronomical Twilight 5:14 AM IST 7:46 PM IST
Moon 9:23 PM IST (9/23) 9:45 AM IST (9/23)
Length of Visible Light 12h 50m
Length of Day
12h 06m
Waning Gibbous, 84% of the Moon is Illuminated
Sep 23
Waning Gibbous
Sep 27
Last Quarter
Oct 5
New
Oct 12
First Quarter
Oct 19
Full

Hourly Weather History & Observations

Time (IST) Temp. Heat Index Dew Point Humidity Pressure Visibility Wind Dir Wind Speed Gust Speed Precip Events Conditions
12:10 AM 82.4 °F 89.5 °F 75.2 °F 79% 29.65 in 1.9 mi WSW 11.5 mph - N/A   Haze
12:40 AM 82.4 °F 89.5 °F 75.2 °F 79% 29.65 in 1.9 mi WSW 11.5 mph - N/A   Haze
1:10 AM 82.4 °F 89.5 °F 75.2 °F 79% 29.65 in 1.9 mi WSW 11.5 mph - N/A   Haze
1:40 AM 82.4 °F 89.5 °F 75.2 °F 79% 29.62 in 1.9 mi WSW 12.7 mph - N/A   Haze
2:10 AM 82.4 °F 89.5 °F 75.2 °F 79% 29.62 in 1.9 mi WSW 10.4 mph - N/A   Haze
2:30 AM 82 °F - 74 °F 72% 29.63 in 1 mi West 3.5 mph - -   Haze
2:40 AM 82.4 °F 89.5 °F 75.2 °F 79% 29.62 in 1.9 mi SW 9.2 mph - N/A   Haze
3:10 AM 82.4 °F 89.5 °F 75.2 °F 79% 29.62 in 1.9 mi WSW 12.7 mph - N/A   Haze
3:40 AM 82.4 °F 89.5 °F 75.2 °F 79% 29.62 in 1.9 mi WSW 15.0 mph - N/A   Haze
4:10 AM 82.4 °F 89.5 °F 75.2 °F 79% 29.62 in 1.9 mi WSW 8.1 mph 19.6 mph N/A   Haze
4:40 AM 82.4 °F 89.5 °F 75.2 °F 79% 29.62 in 1.9 mi WSW 10.4 mph 21.9 mph N/A   Haze
5:10 AM 82.4 °F 89.5 °F 75.2 °F 79% 29.62 in 1.9 mi WSW 13.8 mph - N/A   Haze
5:30 AM 82 °F - 74 °F 70% 29.63 in 1 mi West 6.9 mph - -   Haze
5:40 AM 82.4 °F 89.5 °F 75.2 °F 79% 29.62 in 1.9 mi WSW 13.8 mph - N/A   Haze
6:10 AM 82.4 °F 89.5 °F 75.2 °F 79% 29.62 in 1.9 mi WSW 11.5 mph - N/A   Haze
6:40 AM 82.4 °F 89.5 °F 75.2 °F 79% 29.62 in 1.9 mi WSW 9.2 mph - N/A   Haze
7:10 AM 82.4 °F 89.5 °F 75.2 °F 79% 29.65 in 2.2 mi WSW 13.8 mph - N/A   Haze
7:40 AM 82.4 °F 89.5 °F 75.2 °F 79% 29.65 in 2.5 mi WSW 11.5 mph - N/A   Haze
8:10 AM 82.4 °F 89.5 °F 75.2 °F 79% 29.65 in 2.5 mi WSW 11.5 mph - N/A   Haze
8:30 AM 83 °F - 75 °F 70% 29.67 in 1 mi WSW 9.2 mph - -   Haze
8:40 AM 82.4 °F 89.5 °F 75.2 °F 79% 29.65 in 2.5 mi SW 12.7 mph - N/A   Haze
9:10 AM 82.4 °F 89.5 °F 75.2 °F 79% 29.68 in 2.5 mi SW 9.2 mph 20.7 mph N/A   Haze
9:40 AM 84.2 °F 92.3 °F 75.2 °F 74% 29.68 in 2.5 mi WSW 9.2 mph 20.7 mph N/A   Haze
10:10 AM 84.2 °F 92.3 °F 75.2 °F 74% 29.68 in 2.5 mi WSW 15.0 mph - N/A   Haze
10:40 AM 84.2 °F 92.3 °F 75.2 °F 74% 29.68 in 2.5 mi WSW 16.1 mph 281.9 mph N/A   Haze
11:10 AM 84.2 °F 94.1 °F 77.0 °F 79% 29.68 in 2.5 mi WSW 15.0 mph 26.5 mph N/A   Haze
11:30 AM 85 °F - 75 °F 65% 29.69 in 1 mi SW 10.4 mph - -   Haze
11:40 AM 84.2 °F 92.3 °F 75.2 °F 74% 29.68 in 2.5 mi SW 18.4 mph - N/A   Haze
12:10 PM 84.2 °F 94.1 °F 77.0 °F 79% 29.68 in 2.5 mi SW 15.0 mph 26.5 mph N/A   Haze
12:40 PM 84.2 °F 92.3 °F 75.2 °F 74% 29.68 in 2.5 mi SW 12.7 mph 24.2 mph N/A   Haze
1:10 PM 86.0 °F 95.1 °F 75.2 °F 70% 29.65 in 2.5 mi WSW 15.0 mph 26.5 mph N/A   Haze
1:40 PM 86.0 °F 95.1 °F 75.2 °F 70% 29.65 in 2.5 mi WSW 13.8 mph 25.3 mph N/A   Haze
2:10 PM 84.2 °F 92.3 °F 75.2 °F 74% 29.65 in 2.5 mi SW 13.8 mph 25.3 mph N/A   Haze
2:30 PM 87 °F - 74 °F 58% 29.66 in 2 mi West 9.2 mph - -   Smoke
2:40 PM 84.2 °F 92.3 °F 75.2 °F 74% 29.62 in 2.5 mi WSW 17.3 mph - N/A   Haze
3:10 PM 84.2 °F 92.3 °F 75.2 °F 74% 29.62 in 2.5 mi SW 17.3 mph - N/A   Haze
3:40 PM 82.4 °F 89.5 °F 75.2 °F 79% 29.62 in - SW 16.1 mph - N/A   Haze
4:10 PM 82.4 °F 89.5 °F 75.2 °F 79% 29.62 in - SW 11.5 mph - N/A   Haze
4:40 PM 82.4 °F 89.5 °F 75.2 °F 79% 29.59 in - SW 8.1 mph 19.6 mph N/A   Haze
5:30 PM 83 °F - 74 °F 68% 29.62 in 2 mi SW 16.1 mph - -   Smoke
5:40 PM 82.4 °F 89.5 °F 75.2 °F 79% 29.59 in 1.9 mi SW 9.2 mph 20.7 mph N/A   Haze
6:10 PM 82.4 °F 89.5 °F 75.2 °F 79% 29.62 in 1.9 mi SW 11.5 mph 23.0 mph N/A   Haze
6:40 PM 82.4 °F 89.5 °F 75.2 °F 79% 29.62 in 1.9 mi SW 11.5 mph 23.0 mph N/A   Haze
7:10 PM 82.4 °F 89.5 °F 75.2 °F 79% 29.62 in 1.9 mi SW 16.1 mph - N/A   Haze
7:40 PM 82.4 °F 89.5 °F 75.2 °F 79% 29.62 in 1.9 mi SW 12.7 mph - N/A   Haze
8:10 PM 82.4 °F 89.5 °F 75.2 °F 79% 29.62 in 1.9 mi SSW 13.8 mph - N/A   Haze
8:30 PM 82 °F - 75 °F 73% 29.64 in 1 mi SW 11.5 mph - -   Haze
8:40 PM 82.4 °F 89.5 °F 75.2 °F 79% 29.62 in 1.9 mi SW 13.8 mph - N/A   Haze
9:10 PM 82.4 °F 89.5 °F 75.2 °F 79% 29.65 in 1.9 mi SW 11.5 mph - N/A   Haze
9:40 PM 82.4 °F 90.9 °F 77.0 °F 84% 29.65 in 1.9 mi SSW 10.4 mph - N/A   Haze
10:10 PM 82.4 °F 90.9 °F 77.0 °F 84% 29.65 in 1.9 mi SW 10.4 mph - N/A   Haze
10:40 PM 82.4 °F 90.9 °F 77.0 °F 84% 29.65 in 1.9 mi SW 12.7 mph - N/A   Haze
11:10 PM 82.4 °F 89.5 °F 75.2 °F 79% 29.65 in 1.9 mi SW 11.5 mph - N/A   Haze
11:30 PM 83 °F - 74 °F 69% 29.66 in 1 mi SW 9.2 mph - -   Haze
11:40 PM 82.4 °F 89.5 °F 75.2 °F 79% 29.65 in 1.9 mi SSW 9.2 mph 20.7 mph N/A   Haze